Location: Veytaux
(46.4185°N, 6.9320°E)
Time: 08:41:30
(UTC+00:00)

DEBRIS - Pass Details

Date: 27 May 2022
Orbit: 313 x 15072 km, 49.4° (Epoch: 01 July)

Event Time Altitude Azimuth Distance (km) Brightness Sun altitude
Rises 02:22:58 0° 285° (WNW) 8,441 8.6 -11.8°
Reaches altitude 10° 02:31:00 10° 287° (WNW) 5,351 7.6 -10.8°
Maximum altitude 02:41:57 83° 15° (NNE) 844 3.8 -9.5°
Drops below altitude 10° 02:45:16 10° 105° (ESE) 1,707 5.8 -9.1°
Sets 02:46:36 0° 106° (ESE) 2,342 6.5 -9.0°
